Location: Krakow
(50.0830°N, 19.9170°E)
Time: 08:07:57
(UTC+02:00)

Tiros 1 despin weight - Pass Details

Date: 22 March 2026
Orbit: 555 x 592 km, 48.2° (Epoch: 18 April)

Event Time Altitude Azimuth Distance (km) Brightness Sun altitude
Rises 07:41:27 0° 280° (W) 2,812 ? 18.4°
Reaches altitude 10° 07:44:04 10° 266° (W) 1,903 ? 18.8°
Maximum altitude 07:47:33 24° 213° (SSW) 1,225 ? 19.3°
Drops below altitude 10° 07:51:01 10° 159° (SSE) 1,877 ? 19.8°
Sets 07:53:34 0° 146° (SE) 2,764 ? 20.2°
